User: anonymous   Login
Location: Unspecified
(0.0000°N, 0.0000°E)
Time: 23:50:09
(UTC+00:00)
Language:

Transit 4A - Orbit

View from above orbital plane
View from above orbital plane
View from above satellite
View from above satellite

Ground track
Ground track

The orbit data is extracted from the following two-line orbital elements,

1   116U 61015A   18345.85110679 -.00000044  00000-0  25408-4 0  9991
2   116  66.8091 121.5335 0071955  32.7151 327.8354 13.91744093915273
Epoch (UTC): 11 December 2018 20:25:35
Eccentricity: 0.0071955
inclination: 66.8091°
perigee height: 870 km
apogee height: 975 km
right ascension of ascending node: 121.5335°
argument of perigee: 32.7151°
revolutions per day: 13.91744093
mean anomaly at epoch: 327.8354°
orbit number at epoch: 91527

The dashed part of the orbit path shows where the satellite is in the earth's shadow,  

DLR